Location: *
(40.4270°N, 9.4940°E)
Time: 22:27:27
(UTC+02:00)

Okean 2 - Visible Passes

Search period start: 30 March 2017 00:00
Search period end: 09 April 2017 00:00
Orbit: 563 x 578 km, 82.5° (Epoch: 29 March)

Date Brightness Start Highest point End Pass type
(mag) Time Alt. Az. Time Alt. Az. Time Alt. Az.
30 Mar 6.3 04:36:51 10° ESE 04:39:15 15° E 04:41:39 10° NE visible
30 Mar 3.9 06:11:47 10° SSW 06:15:42 39° WNW 06:19:39 10° N visible
31 Mar 6.0 04:38:15 10° SE 04:41:13 19° E 04:44:12 10° NE visible
31 Mar 4.3 06:14:08 10° SW 06:17:49 30° WNW 06:21:33 10° NNW visible
01 Apr 5.5 04:40:42 15° SE 04:43:12 25° E 04:46:37 10° NE visible
01 Apr 4.6 06:16:52 12° SW 06:19:57 24° WNW 06:23:23 10° NNW visible
02 Apr 5.1 04:43:21 22° SE 04:45:12 31° E 04:48:56 10° NNE visible
02 Apr 4.9 06:19:31 12° WSW 06:22:06 19° WNW 06:25:07 10° NNW visible
03 Apr 4.6 04:45:55 31° SE 04:47:13 41° E 04:51:10 10° NNE visible
03 Apr 5.2 06:22:05 11° WSW 06:24:16 15° WNW 06:26:43 10° NW visible
04 Apr 4.0 04:48:25 45° SE 04:49:15 54° E 04:53:20 10° NNE visible
04 Apr 5.4 06:24:55 10° W 06:26:27 12° WNW 06:28:00 10° NW visible
05 Apr 3.5 04:50:52 65° SE 04:51:17 72° E 04:55:28 10° NNE visible
06 Apr 3.2 04:53:16 85° SW 04:53:21 86° WNW 04:57:32 10° N visible
07 Apr 3.4 04:55:37 64° WNW 04:55:37 64° WNW 04:59:35 10° N visible
08 Apr 6.4 03:21:47 12° ENE 03:21:47 12° ENE 03:22:46 10° ENE visible
08 Apr 3.8 04:57:57 47° WNW 04:57:57 47° WNW 05:01:34 10° N visible
